#timestamp,LO_Frequency,Hit,StdDev 
1513911615.7,286046998.2,N
1513911635.6,286046999.0,N
1513911655.4,286046998.6,N
1513911675.2,286046998.6,N
1513911695.1,286047000.7,N
1513911696.0,286047000.7,N
1513911715.8,286046998.6,N
1513911735.6,286047000.8,N
1513911755.5,286046999.9,N
1513911775.3,286047002.6,N
1513911795.2,286047000.4,N
1513911815.9,286046999.3,N
1513911835.7,286046999.3,N
1513911855.6,286046998.4,N
1513911875.4,286046999.7,N
1513911895.2,286047000.4,N
1513911915.1,286047002.3,N
1513911916.0,286047002.3,N
1513911935.8,286047000.3,N
1513911955.7,286046998.2,N
1513911975.5,286046998.3,N
1513911995.3,286046999.0,N
1513912015.2,286046998.4,N
1513912035.0,286046999.4,N
1513912035.9,286046999.4,N
1513912055.8,286047001.2,N
1513912075.6,286047001.0,N
1513912095.4,286046998.7,N
1513912115.3,286046999.4,N
1513912135.1,286046997.3,N
1513912155.9,286046999.6,N
1513912175.7,286047001.2,N
1513912195.5,286047000.8,N
1513912215.4,286046998.1,N
1513912235.2,286046998.3,N
1513912255.0,286046998.2,N
1513912255.9,286046998.2,N
1513912275.8,286047002.8,N
1513912295.6,286047000.4,N
1513912315.5,286046999.8,N
1513912335.3,286047000.1,N
1513912355.1,286047000.9,N
1513912375.9,286047002.2,N
1513912395.7,286047001.6,N
1513912415.6,286047002.8,N
1513912435.4,286046999.7,N
1513912455.2,286047001.8,N
1513912475.1,286047002.5,N
1513912476.0,286047002.5,N
1513912495.8,286046999.7,N
1513912515.6,286047000.3,N
1513912535.5,286047000.3,N
1513912555.3,286047000.3,N
1513912575.2,286047000.8,N
1513912595.9,286047000.1,N
1513912615.7,286047001.2,N
1513912635.6,286047001.1,N
1513912655.4,286047001.2,N
1513912675.2,286047000.9,N
1513912695.1,286046998.5,N
1513912696.0,286046998.5,N
1513912715.8,286046996.7,N
1513912735.7,286046998.9,N
1513912755.5,286046998.5,N
1513912775.3,286046996.6,N
1513912795.2,286046999.2,N
1513912815.0,286046996.5,N
1513912815.9,286046996.5,N
1513912835.7,286047001.1,N
1513912855.6,286047000.5,N
1513912875.4,286047000.0,N
1513912895.3,286047000.2,N
1513912915.1,286046998.1,N
1513912935.8,286047001.1,N
1513912955.7,286046999.9,N
1513912975.5,286047000.7,N
1513912995.4,286046999.7,N
1513913015.2,286047000.4,N
1513913035.0,286047000.9,N
1513913035.9,286047000.9,N
1513913055.8,286046998.6,N
1513913075.6,286047001.2,N
1513913095.4,286046998.7,N
1513913115.3,286046998.4,N
1513913135.1,286047001.1,N
1513913155.9,286046998.3,N
1513913175.7,286047000.9,N
1513913195.5,286047000.1,N
1513913215.4,286047000.6,N
1513913235.2,286046998.1,N
1513913255.0,286046999.7,N
1513913256.0,286046999.7,N
1513913275.8,286047000.2,N
1513913295.6,286047000.2,N
1513913315.5,286046999.8,N
1513913335.3,286047000.6,N
1513913355.1,286047000.4,N
1513913375.9,286047000.5,N
1513913395.7,286046998.6,N
1513913415.6,286047001.2,N
1513913435.4,286046998.6,N
1513913455.2,286047000.5,N
1513913475.1,286046998.1,N
1513913476.0,286046998.1,N
1513913495.8,286046998.4,N
1513913515.6,286046998.3,N
1513913535.5,286047000.7,N
1513913555.3,286047002.7,N
1513913575.2,286046998.1,N
1513913595.9,286046998.6,N
1513913615.7,286047000.7,N
1513913635.6,286047001.2,N
1513913655.4,286047001.0,N
1513913675.2,286047002.4,N
1513913695.1,286047002.6,N
1513913696.0,286047002.6,N
1513913715.8,286047001.6,N
1513913735.7,286047002.6,N
1513913755.5,286047002.5,N
1513913775.4,286047002.7,N
1513913795.2,286047000.5,N
1513913815.1,286046998.5,N
1513913816.0,286046998.5,N
1513913835.8,286046999.0,N
1513913855.6,286047000.8,N
1513913875.5,286046999.6,N
1513913895.3,286046999.6,N
1513913915.1,286046996.5,N
1513913935.9,286046996.9,N
1513913955.7,286046998.7,N
1513913975.6,286047000.8,N
1513913995.4,286046998.7,N
1513914015.2,286046998.3,N
1513914035.1,286046999.1,N
1513914036.0,286046999.1,N
1513914055.8,286046999.1,N
1513914075.7,286046998.2,N
1513914095.5,286047002.4,N
1513914115.3,286047003.9,N
1513914135.2,286047004.1,N
1513914155.0,286047001.7,N
1513914155.9,286047001.7,N
1513914175.7,286047002.0,N
1513914195.6,286047002.8,N
1513914215.4,286047000.4,N
1513914235.3,286047001.1,N
1513914255.1,286047000.4,N
1513914256.0,286047000.4,N
1513914275.8,286047000.4,N
1513914295.7,286046998.1,N
1513914315.5,286047001.2,N
1513914335.4,286046998.4,N
1513914355.2,286046998.2,N
1513914375.0,286047000.9,N
1513914375.9,286047000.9,N
1513914395.8,286046998.6,N
1513914415.6,286047000.8,N
1513914435.5,286047000.1,N
1513914455.3,286046999.9,N
1513914475.1,286047001.8,N
1513914495.9,286047001.6,N
1513914515.7,286047004.4,N
1513914535.6,286047002.2,N
1513914555.4,286046999.7,N
1513914575.2,286047001.4,N
1513914595.1,286047004.0,N
1513914596.0,286047004.0,N
1513914615.8,286047002.6,N
1513914635.7,286047000.1,N
1513914655.5,286047001.7,N
1513914675.3,286047004.0,N
1513914695.2,286047004.2,N
1513914715.9,286047005.1,N
1513914735.7,286047005.5,N
1513914755.6,286047005.4,N
1513914775.4,286047005.1,N
1513914795.3,286047003.1,N
1513914815.1,286047001.9,N
1513914816.0,286047001.9,N
1513914835.8,286047002.8,N
1513914855.7,286046999.8,N
1513914875.5,286046998.1,N
1513914895.3,286046999.4,N
1513914915.2,286046999.3,N
1513914935.0,286046999.4,N
1513914935.9,286046999.4,N
1513914955.8,286046996.5,N
1513914975.6,286046999.2,N
1513914995.4,286046996.7,N
1513915015.3,286046995.3,N
1513915035.1,286046996.1,N
1513915055.8,286046993.3,N
1513915075.7,286046995.8,N
1513915095.5,286046993.7,N
1513915115.3,286046993.6,N
1513915135.2,286046996.3,N
1513915155.0,286046995.9,N
1513915155.9,286046995.9,N
1513915175.8,286046996.0,N
1513915195.6,286046994.5,N
